Regional Weather Roundup
Issued by NWS

Home | Current Version | Previous Version | Text Only | Print | Product List | Glossary On
Versions: 1 2 3 4 5 6 7 8 9 10 11 12 13 14 15 16 17 18 19 20 21 22 23 24 25 26 27 28 29 30 31 32 33 34 35 36 37 38 39 40 41 42 43 44 45 46 47 48 49 50
000
ASUS46 KSTO 302215
RWRCA

NORTHERN AND CENTRAL CA REGIONAL WEATHER ROUNDUP
NATIONAL WEATHER SERVICE SACRAMENTO CA
300 PM PDT FRI SEP 30 2016

NOTE: FAIR INDICATES FEW OR NO CLOUDS BELOW 12,000 FEET WITH NO
SIGNIFICANT WEATHER AND/OR OBSTRUCTIONS TO VISIBILITY.

CAZ001-003-302300-
NORTHWEST AREA

CITY           SKY/WX    TMP DP  RH WIND       PRES   REMARKS
CRESCENT CITY  CLOUDY    59  46  62 SW12      30.12F
UKIAH            N/A     68  19  15 W10G23    30.07F
$$

CAZ006-505>513-302300-
BAY AREA

CITY           SKY/WX    TMP DP  RH WIND       PRES   REMARKS
SANTA ROSA     SUNNY     73  45  36 SW8       30.02F
SAN RAFAEL     N/A       63  MM  MM MISG
NAPA           SUNNY     71  43  36 SW21      30.05F
CONCORD        SUNNY     72  38  29 SW15      30.06F
OAKLAND CITY   N/A       64  MM  MM MISG
OAKLAND        MOSUNNY   66  50  56 W22       30.10F
SAN FRAN CITY  N/A       60  MM  63 MISG
SAN FRAN ARPT  MOSUNNY   64  47  53 W18       30.12F
LIVERMORE      SUNNY     68  43  40 W15       30.08F
HAYWARD        SUNNY     65  45  48 W17       30.11F
REDWOOD CITY   N/A       65  MM  50 MISG
MOFFETT ARPT   SUNNY     70  44  39 N18G24    30.10F
SAN JOSE ARPT  MOSUNNY   69  41  36 NW17      30.10F
$$
CAZ034-037-514>518-302300-
CENTRAL COAST

CITY           SKY/WX    TMP DP  RH WIND       PRES   REMARKS
WATSONVILLE    SUNNY     66  51  58 VRB5      30.08F
SALINAS        SUNNY     64  47  53 W17       30.09F
MONTEREY       SUNNY     61  48  62 W12       30.12F
SAN LUIS OBISP SUNNY     77  52  41 NW14      30.02F
SANTA MARIA    SUNNY     67  54  63 NW12      30.05F
$$
CAZ015-016-302300-
NORTHERN SACRAMENTO VALLEY

CITY           SKY/WX    TMP DP  RH WIND       PRES   REMARKS
REDDING        CLOUDY    77  37  23 S7        29.94F
RED BLUFF      PTSUNNY   77  42  28 S15       29.96F
OROVILLE       SUNNY     81  45  28 S21G29    29.98F
$$
CAZ016>018-302300-
SOUTHERN SACRAMENTO VALLEY

CITY           SKY/WX    TMP DP  RH WIND       PRES   REMARKS
AUBURN         SUNNY     75  36  23 SW9G16    30.05F
BEALE AFB      SUNNY     81  36  20 S21       29.96F
LINCOLN        FAIR      79  32  18 S16       29.99F
MARYSVILLE     SUNNY     80  40  23 S18       29.98F
SAC INTL ARPT  SUNNY     76  41  28 S18       29.98F
MATHER AIRPORT SUNNY    129  36   4 SW15      30.02F HX 116
DOWNTOWN SAC   N/A       76  MM  MM MISG
SAC EXEC ARPT  SUNNY     74  39  28 SW13G26   30.00F
VACAVILLE      SUNNY     75  43  31 S15G24    30.01F
TRAVIS AFB     SUNNY     71  43  35 SW29      29.99F
$$
CAZ019>021-302300-
SAN JOAQUIN VALLEY

CITY           SKY/WX    TMP DP  RH WIND       PRES   REMARKS
STOCKTON       SUNNY     77  38  24 W17       30.02F
MODESTO        SUNNY     81  36  19 N14       30.00F
MERCED         SUNNY     84  37  18 N9        29.98F
LEMOORE        SUNNY     90  40  17 VRB5      29.96F
FRESNO         MOSUNNY   89  40  17 SW7       29.97F
HANFORD        SUNNY     90  39  16 CALM      29.96F
PORTERVILLE    SUNNY     90  47  22 CALM      29.97F
BAKERSFIELD    SUNNY     91  42  18 N8        29.95F
$$
CAZ011-012-071-302300-
NORTHERN MOUNTAINS

CITY           SKY/WX    TMP DP  RH WIND       PRES   REMARKS
YREKA          SUNNY     73  28  18 NW12      29.96F
MOUNT SHASTA   PTSUNNY   67  34  29 VRB6      30.01F
ALTURAS        PTSUNNY   72  32  23 SW18G28   29.99F
$$
CAZ011-012-071-302300-
SIERRA NEVADA MTNS

CITY           SKY/WX    TMP DP  RH WIND       PRES   REMARKS
BLUE CANYON    SUNNY     64  27  24 S18G28    30.18F
TRUCKEE        MOSUNNY   70  30  23 SW23G32   30.16F
TAHOE VLY ARPT MOSUNNY   68  28  22 S14G26    30.17F
MAMMOTH LAKES  FAIR      69  25  19 W13G31    30.25S
$$




USA.gov is the U.S. government's official web portal to all federal, state and local government web resources and services.